Temp
-11 -11 -10 -10 -10 -9 -9 -9 -9 -9 -9 -9 -9 -9 -9 -9 -9 -9 -9 -9 -9 -9 -10 -10 -10 -10 -10 -10 -10 -10 -10 -10 -10 -10 -10 -10 -10 -10 -10 -9 -9 -9 -9 -8 -8 -8 -7 -7 -7
-10 -10 -10 -9 -9 -8 -9 -9 -9 -9 -9 -9 -9 -9 -9 -9 -9 -10 -10 -10 -10 -10 -10 -10 -10 -10 -10 -10 -10 -10 -10 -10 -10 -10 -10 -10 -10 -10 -10 -10 -10 -10 -9 -9 -9 -9 -9 -8 -8
-10 -9 -10 -9 -9 -9 -9 -9 -9 -9 -10 -9 -10 -10 -10 -10 -10 -10 -10 -10 -11 -11 -11 -11 -11 -11 -11 -11 -11 -11 -11 -11 -11 -11 -11 -11 -11 -10 -10 -10 -10 -10 -10 -10 -9 -9 -9 -9 -9
-9 -9 -9 -9 -9 -9 -9 -10 -10 -10 -10 -10 -10 -10 -10 -10 -10 -11 -11 -11 -11 -11 -11 -11 -11 -11 -11 -11 -11 -11 -11 -11 -11 -11 -11 -10 -10 -10 -10 -10 -10 -10 -9 -9 -9 -9 -9 -9 -9
-9 -9 -9 -9 -9 -9 -9 -9 -10 -10 -10 -10 -10 -10 -10 -11 -11 -11 -11 -11 -11 -11 -11 -11 -11 -11 -11 -11 -11 -11 -11 -11 -11 -11 -11 -11 -10 -10 -10 -10 -10 -9 -9 -9 -9 -9 -9 -9 -9
-9 -9 -9 -9 -9 -9 -9 -10 -10 -10 -10 -10 -10 -11 -11 -11 -11 -11 -11 -11 -11 -11 -11 -12 -12 -12 -12 -12 -12 -12 -12 -12 -12 -12 -12 -12 -11 -11 -11 -10 -10 -10 -10 -10 -9 -9 -9 -9 -9
-9 -9 -9 -9 -9 -10 -10 -10 -10 -10 -10 -11 -11 -11 -11 -11 -11 -11 -11 -11 -11 -12 -12 -13 -13 -13 -13 -14 -14 -14 -15 -15 -15 -15 -15 -15 -15 -15 -15 -14 -13 -13 -12 -12 -11 -11 -10 -9 -9
-9 -9 -9 -9 -10 -10 -10 -10 -10 -10 -11 -11 -10 -10 -11 -11 -11 -11 -11 -12 -13 -13 -13 -14 -15 -16 -15 -15 -15 -16 -16 -16 -15 -16 -16 -16 -16 -16 -16 -16 -15 -15 -15 -15 -15 -14 -14 -13 -12
-9 -9 -9 -9 -10 -10 -10 -11 -11 -11 -11 -10 -10 -10 -11 -11 -11 -12 -12 -13 -13 -14 -14 -15 -15 -15 -15 -15 -15 -16 -16 -16 -16 -16 -16 -16 -16 -16 -16 -16 -16 -15 -15 -15 -15 -15 -15 -15 -14
-9 -9 -9 -10 -10 -10 -11 -11 -11 -11 -11 -10 -10 -11 -11 -11 -12 -13 -13 -14 -14 -14 -15 -15 -15 -15 -15 -16 -16 -16 -16 -16 -16 -16 -16 -16 -16 -16 -16 -15 -15 -15 -15 -15 -14 -14 -14 -14 -14
-9 -9 -10 -10 -10 -11 -11 -11 -10 -10 -10 -10 -11 -11 -11 -12 -12 -13 -14 -14 -14 -15 -15 -15 -15 -15 -15 -15 -16 -16 -16 -16 -16 -16 -16 -16 -16 -16 -16 -16 -16 -16 -16 -16 -16 -16 -15 -15 -15
-9 -9 -10 -10 -11 -11 -10 -10 -10 -10 -10 -10 -11 -11 -11 -12 -13 -13 -14 -14 -14 -15 -15 -15 -15 -15 -15 -15 -15 -16 -16 -16 -16 -16 -16 -16 -16 -16 -16 -16 -16 -16 -16 -16 -16 -15 -15 -15 -15
-9 -9 -10 -10 -10 -10 -10 -10 -10 -10 -10 -10 -10 -10 -11 -12 -13 -13 -14 -14 -14 -14 -14 -15 -15 -15 -15 -15 -16 -16 -16 -16 -16 -16 -16 -16 -16 -16 -16 -16 -16 -16 -16 -16 -16 -16 -16 -16 -15
-9 -9 -10 -10 -10 -10 -10 -10 -10 -10 -10 -10 -10 -10 -11 -12 -13 -13 -14 -14 -14 -14 -14 -14 -15 -15 -15 -15 -15 -16 -16 -16 -16 -16 -16 -16 -16 -16 -16 -16 -16 -16 -16 -16 -16 -16 -16 -16 -16
-9 -9 -10 -10 -10 -10 -10 -10 -10 -10 -10 -10 -10 -10 -11 -11 -12 -13 -13 -13 -13 -14 -14 -14 -15 -15 -15 -15 -16 -16 -16 -16 -16 -16 -16 -17 -17 -17 -17 -17 -17 -17 -17 -17 -17 -17 -16 -16 -16
-9 -9 -10 -10 -10 -10 -9 -10 -10 -10 -10 -10 -10 -10 -10 -11 -12 -13 -13 -13 -14 -14 -14 -14 -15 -15 -15 -16 -16 -16 -17 -17 -17 -17 -17 -17 -16 -16 -16 -16 -16 -17 -17 -17 -17 -17 -17 -17 -17
-9 -9 -9 -10 -10 -9 -9 -10 -10 -10 -10 -10 -9 -9 -9 -10 -11 -12 -12 -13 -13 -13 -13 -14 -14 -15 -15 -15 -16 -15 -16 -16 -16 -16 -16 -16 -16 -16 -16 -16 -16 -16 -16 -16 -16 -17 -17 -17 -17
-9 -9 -10 -10 -10 -9 -9 -10 -10 -10 -10 -9 -9 -9 -9 -9 -10 -10 -11 -11 -11 -11 -12 -12 -13 -14 -14 -14 -15 -15 -15 -15 -15 -15 -15 -15 -16 -16 -16 -16 -16 -16 -16 -16 -16 -16 -16 -17 -17
-9 -9 -10 -10 -10 -9 -9 -10 -10 -10 -10 -9 -9 -9 -9 -10 -10 -10 -11 -11 -11 -11 -12 -12 -13 -13 -14 -14 -14 -14 -14 -14 -15 -15 -15 -15 -15 -16 -16 -16 -16 -16 -16 -16 -16 -16 -16 -17 -17
-9 -9 -9 -10 -10 -10 -10 -10 -10 -10 -10 -9 -9 -9 -9 -10 -10 -10 -11 -11 -11 -11 -12 -12 -12 -13 -13 -13 -13 -13 -14 -14 -14 -15 -15 -15 -15 -15 -15 -16 -16 -16 -16 -16 -17 -17 -17 -17 -17
-9 -9 -9 -9 -10 -10 -10 -10 -10 -10 -10 -9 -9 -9 -9 -10 -10 -10 -10 -10 -11 -11 -12 -12 -12 -13 -13 -13 -13 -14 -14 -14 -14 -15 -15 -15 -15 -15 -15 -16 -16 -16 -16 -17 -17 -17 -18 -18 -18
-9 -9 -9 -9 -10 -10 -10 -10 -10 -10 -10 -10 -10 -10 -10 -10 -10 -10 -10 -10 -11 -11 -11 -12 -12 -12 -12 -13 -13 -13 -14 -14 -14 -14 -15 -15 -15 -15 -16 -16 -16 -16 -17 -17 -18 -18 -18 -18 -19
-9 -9 -9 -9 -9 -10 -10 -10 -10 -10 -10 -10 -10 -10 -10 -10 -10 -10 -10 -10 -11 -11 -11 -11 -12 -12 -12 -13 -13 -13 -14 -14 -14 -14 -14 -15 -15 -15 -16 -16 -17 -17 -17 -17 -18 -18 -19 -19 -19
-9 -9 -9 -9 -9 -9 -10 -10 -10 -10 -10 -10 -10 -10 -10 -10 -10 -10 -10 -10 -11 -11 -11 -11 -11 -12 -12 -13 -13 -13 -13 -14 -14 -14 -15 -15 -15 -15 -16 -16 -17 -17 -17 -18 -18 -19 -19 -19 -20
-9 -9 -9 -9 -9 -9 -9 -10 -10 -10 -10 -10 -10 -10 -10 -10 -10 -10 -10 -10 -11 -11 -11 -11 -11 -12 -12 -12 -13 -13 -13 -14 -14 -14 -14 -15 -15 -16 -16 -16 -17 -17 -17 -18 -18 -19 -19 -20 -21
-9 -9 -9 -9 -9 -9 -9 -10 -10 -10 -10 -10 -10 -10 -10 -10 -10 -10 -10 -10 -10 -11 -11 -11 -11 -12 -12 -12 -13 -13 -13 -13 -14 -14 -14 -15 -15 -16 -16 -16 -16 -17 -17 -18 -18 -19 -20 -21 -22
-9 -9 -9 -9 -9 -9 -9 -9 -10 -10 -10 -10 -10 -10 -10 -10 -10 -10 -10 -10 -10 -11 -11 -11 -11 -12 -12 -12 -12 -13 -13 -13 -14 -14 -15 -15 -15 -16 -16 -16 -16 -17 -17 -18 -18 -19 -20 -21 -23
-9 -9 -9 -9 -9 -9 -9 -9 -9 -9 -10 -10 -10 -10 -10 -10 -10 -10 -10 -10 -11 -11 -11 -11 -11 -12 -12 -12 -12 -13 -13 -13 -14 -14 -15 -15 -15 -16 -16 -16 -16 -17 -17 -17 -18 -19 -20 -22 -23
-10 -10 -10 -9 -9 -9 -9 -9 -9 -9 -9 -10 -10 -10 -10 -10 -10 -10 -10 -10 -11 -11 -11 -11 -11 -12 -12 -12 -12 -13 -13 -13 -14 -14 -15 -15 -15 -16 -16 -16 -16 -17 -17 -17 -18 -19 -21 -22 -24
-10 -10 -10 -10 -10 -10 -9 -9 -10 -10 -10 -9 -9 -10 -10 -10 -10 -10 -11 -11 -11 -11 -11 -11 -11 -12 -12 -12 -12 -13 -13 -13 -14 -14 -15 -15 -15 -16 -16 -16 -16 -16 -17 -17 -18 -18 -20 -21 -24
Height
5866 5868 5869 5870 5870 5867 5864 5856 5866 5865 5865 5863 5861 5860 5859 5857 5855 5855 5850 5848 5847 5845 5845 5841 5840 5838 5836 5835 5833 5832 5830 5830 5829 5828 5826 5825 5824 5824 5823 5823 5823 5822 5822 5822 5822 5824 5825 5826 5829
5867 5868 5869 5869 5868 5865 5866 5865 5864 5863 5862 5861 5858 5858 5856 5854 5852 5850 5848 5846 5844 5841 5840 5836 5834 5831 5829 5827 5824 5823 5821 5821 5820 5819 5817 5817 5815 5815 5815 5814 5814 5814 5814 5814 5813 5814 5815 5817 5819
5868 5868 5869 5868 5867 5865 5865 5865 5864 5862 5860 5859 5857 5855 5854 5852 5850 5847 5844 5842 5839 5836 5834 5829 5828 5825 5823 5820 5817 5814 5811 5810 5810 5809 5808 5807 5805 5804 5804 5805 5805 5805 5805 5805 5806 5806 5805 5806 5809
5868 5869 5869 5867 5866 5866 5864 5864 5863 5862 5859 5858 5856 5853 5851 5849 5847 5843 5840 5837 5834 5831 5829 5824 5821 5817 5814 5811 5808 5805 5801 5799 5798 5798 5797 5797 5796 5794 5793 5793 5793 5794 5794 5795 5795 5795 5797 5797 5797
5869 5869 5868 5867 5867 5865 5865 5864 5863 5860 5858 5856 5854 5852 5849 5846 5843 5840 5836 5833 5829 5825 5822 5818 5813 5808 5804 5800 5797 5794 5790 5787 5784 5783 5783 5783 5783 5783 5782 5780 5780 5780 5780 5781 5783 5784 5784 5786 5787
5870 5869 5868 5866 5866 5865 5865 5863 5861 5858 5855 5854 5852 5849 5846 5842 5839 5836 5832 5828 5823 5819 5814 5809 5803 5798 5794 5789 5785 5782 5779 5776 5773 5770 5767 5767 5768 5768 5768 5768 5767 5767 5767 5767 5768 5770 5772 5773 5775
5869 5868 5867 5866 5865 5864 5862 5859 5857 5856 5853 5851 5848 5847 5844 5840 5836 5832 5827 5821 5815 5808 5802 5797 5793 5788 5783 5779 5775 5772 5769 5767 5765 5762 5760 5758 5757 5756 5756 5756 5755 5755 5755 5755 5755 5755 5756 5758 5760
5869 5868 5866 5864 5862 5861 5859 5856 5854 5853 5852 5849 5846 5845 5840 5837 5832 5827 5820 5813 5804 5797 5791 5786 5782 5779 5776 5772 5769 5766 5764 5762 5761 5758 5757 5755 5753 5751 5750 5750 5749 5748 5747 5746 5746 5746 5745 5745 5745
5869 5868 5866 5864 5861 5860 5857 5855 5853 5852 5850 5847 5844 5841 5839 5833 5827 5818 5812 5805 5799 5791 5784 5780 5777 5774 5772 5769 5766 5763 5761 5760 5758 5756 5754 5752 5750 5748 5746 5744 5742 5741 5741 5740 5739 5738 5738 5737 5735
5869 5868 5865 5863 5860 5858 5856 5854 5853 5852 5849 5846 5843 5839 5834 5827 5819 5812 5805 5797 5792 5787 5782 5778 5775 5772 5769 5767 5764 5761 5759 5757 5755 5752 5750 5748 5746 5745 5742 5740 5737 5735 5733 5732 5731 5730 5729 5729 5728
5869 5867 5865 5862 5859 5857 5855 5853 5852 5850 5849 5846 5842 5837 5830 5822 5814 5806 5798 5793 5790 5786 5782 5778 5774 5771 5767 5764 5761 5758 5756 5754 5751 5749 5747 5744 5741 5739 5737 5735 5732 5730 5728 5725 5723 5722 5720 5719 5717
5869 5866 5864 5861 5857 5856 5854 5853 5851 5850 5848 5844 5840 5832 5825 5816 5808 5801 5796 5793 5790 5785 5781 5777 5773 5769 5766 5763 5760 5757 5753 5750 5748 5745 5743 5740 5738 5736 5734 5732 5729 5726 5723 5720 5717 5714 5712 5709 5707
5868 5866 5863 5860 5857 5855 5854 5853 5851 5849 5846 5842 5836 5829 5820 5812 5805 5800 5797 5792 5788 5784 5780 5776 5772 5769 5765 5762 5759 5756 5752 5748 5745 5743 5740 5738 5735 5733 5730 5727 5724 5721 5717 5714 5710 5706 5703 5700 5697
5868 5865 5862 5859 5856 5856 5854 5853 5851 5849 5845 5840 5833 5826 5817 5810 5805 5801 5797 5793 5788 5784 5781 5777 5773 5769 5765 5762 5759 5756 5752 5748 5744 5742 5739 5736 5732 5729 5725 5721 5718 5713 5709 5705 5701 5698 5693 5689 5686
5868 5866 5862 5859 5857 5855 5854 5853 5850 5848 5844 5839 5832 5824 5816 5810 5806 5802 5798 5794 5790 5785 5781 5776 5772 5770 5767 5763 5759 5756 5751 5747 5743 5740 5737 5733 5729 5725 5721 5716 5711 5705 5700 5695 5692 5688 5684 5679 5674
5868 5866 5863 5859 5857 5855 5854 5853 5850 5847 5843 5837 5830 5823 5817 5811 5807 5803 5799 5795 5790 5786 5783 5779 5776 5772 5768 5764 5760 5756 5751 5747 5743 5739 5736 5731 5728 5723 5718 5713 5707 5702 5695 5689 5684 5679 5675 5670 5664
5867 5864 5861 5858 5856 5854 5854 5852 5850 5846 5842 5837 5831 5825 5819 5813 5809 5804 5800 5795 5791 5788 5785 5781 5775 5773 5768 5764 5760 5756 5753 5748 5744 5741 5737 5732 5728 5723 5717 5711 5706 5700 5693 5687 5681 5674 5668 5662 5655
5866 5863 5861 5858 5857 5854 5853 5852 5849 5846 5842 5836 5832 5827 5822 5817 5812 5807 5803 5798 5795 5792 5787 5783 5778 5774 5771 5767 5763 5760 5756 5751 5747 5743 5738 5734 5728 5722 5717 5711 5705 5698 5691 5683 5676 5669 5662 5655 5647
5866 5864 5862 5859 5856 5854 5852 5851 5849 5846 5842 5837 5833 5830 5825 5820 5816 5810 5806 5802 5798 5795 5790 5786 5782 5778 5775 5770 5767 5763 5757 5752 5748 5744 5739 5733 5728 5722 5716 5710 5704 5696 5689 5681 5674 5666 5657 5647 5638
5866 5865 5863 5859 5856 5853 5851 5850 5848 5846 5843 5838 5835 5831 5828 5823 5819 5815 5810 5805 5801 5798 5794 5790 5786 5782 5776 5773 5768 5764 5759 5754 5750 5744 5738 5733 5727 5721 5715 5708 5701 5694 5686 5678 5670 5661 5651 5640 5631
5865 5864 5862 5860 5857 5854 5851 5850 5848 5846 5843 5840 5837 5833 5830 5826 5822 5818 5814 5810 5806 5802 5797 5793 5787 5783 5778 5774 5769 5765 5760 5755 5750 5745 5739 5733 5727 5720 5714 5706 5699 5691 5682 5674 5666 5656 5646 5635 5620
5864 5863 5862 5860 5857 5854 5851 5850 5847 5846 5843 5841 5838 5834 5831 5828 5825 5821 5817 5813 5808 5804 5800 5795 5790 5785 5781 5775 5771 5766 5762 5756 5750 5744 5738 5732 5726 5719 5711 5704 5696 5687 5678 5669 5660 5650 5640 5627 5615
5863 5862 5861 5859 5857 5854 5851 5849 5847 5845 5842 5841 5838 5835 5832 5829 5826 5822 5819 5814 5810 5806 5801 5796 5791 5786 5782 5778 5772 5767 5762 5756 5750 5744 5738 5730 5723 5716 5708 5701 5692 5683 5674 5664 5653 5643 5631 5619 5607
5860 5860 5859 5858 5856 5855 5852 5849 5846 5843 5842 5841 5838 5835 5833 5830 5826 5823 5819 5815 5811 5806 5802 5797 5792 5787 5783 5778 5772 5767 5762 5756 5750 5743 5736 5728 5721 5714 5705 5697 5689 5679 5668 5659 5648 5637 5624 5611 5598
5856 5857 5857 5856 5854 5853 5850 5848 5846 5843 5840 5838 5837 5835 5832 5829 5826 5823 5819 5816 5812 5807 5803 5798 5793 5788 5783 5777 5772 5767 5761 5755 5749 5741 5734 5727 5719 5711 5703 5694 5685 5675 5664 5653 5642 5630 5618 5603 5591
5853 5853 5853 5852 5852 5851 5850 5848 5846 5842 5840 5837 5835 5833 5831 5828 5825 5822 5819 5815 5811 5807 5802 5797 5793 5788 5783 5778 5772 5767 5760 5754 5747 5740 5733 5725 5716 5708 5699 5690 5681 5671 5660 5648 5636 5625 5610 5597 5582
5849 5849 5849 5849 5848 5848 5848 5846 5844 5841 5839 5836 5833 5830 5828 5826 5823 5820 5817 5813 5810 5805 5801 5797 5792 5788 5782 5777 5772 5766 5759 5753 5746 5738 5731 5723 5714 5706 5697 5687 5677 5668 5655 5644 5631 5618 5604 5590 5576
5843 5844 5844 5844 5844 5844 5843 5842 5841 5839 5836 5834 5832 5829 5826 5823 5820 5817 5815 5811 5807 5803 5799 5795 5791 5786 5782 5776 5770 5764 5758 5751 5744 5736 5728 5720 5712 5703 5694 5685 5675 5665 5652 5640 5628 5613 5598 5583 5568
5837 5837 5838 5838 5839 5837 5838 5839 5837 5836 5833 5832 5829 5827 5823 5820 5817 5814 5812 5808 5805 5801 5797 5793 5789 5784 5780 5775 5769 5763 5756 5749 5742 5734 5726 5719 5710 5701 5692 5683 5672 5662 5650 5638 5625 5610 5595 5578 5563
5831 5830 5831 5831 5833 5832 5831 5836 5832 5830 5828 5828 5827 5824 5821 5817 5814 5811 5808 5805 5801 5798 5794 5790 5786 5782 5777 5772 5767 5760 5754 5747 5740 5732 5725 5717 5708 5699 5690 5681 5670 5660 5649 5637 5623 5607 5592 5577 5560
Wind_Speed
4 2 2 3 5 3 5 13 11 13 14 17 17 18 19 22 23 24 25 26 26 26 25 28 30 31 32 33 34 35 36 37 38 39 40 41 41 41 43 43 44 46 47 48 49 49 50 49 49
5 3 1 3 7 6 8 12 14 16 17 18 20 19 19 20 22 22 24 26 28 29 30 33 34 36 37 38 40 40 40 40 41 42 44 44 45 46 46 47 48 48 50 50 51 51 51 51 52
5 6 3 6 8 10 13 14 16 16 18 18 20 20 19 21 22 25 27 29 31 32 33 36 36 37 37 38 40 41 43 44 45 45 46 47 48 49 49 48 49 50 51 53 53 55 56 55 54
6 5 6 8 9 8 14 14 17 17 19 20 19 22 22 22 24 27 29 31 32 33 33 37 38 41 43 45 47 49 50 52 52 51 52 53 54 53 53 54 54 54 55 54 56 56 57 60 60
7 6 7 6 8 11 15 17 18 19 19 21 19 20 22 24 26 28 30 31 33 37 40 43 46 47 49 51 53 55 57 58 58 57 55 54 55 56 57 57 57 57 57 58 59 60 61 61 63
6 5 6 10 11 12 14 17 19 18 19 20 19 21 23 25 27 29 32 36 41 44 46 47 48 51 53 54 54 52 50 47 46 45 45 45 47 47 50 53 56 56 57 58 59 60 61 62 64
7 8 10 12 14 14 16 18 18 18 17 19 21 20 23 26 29 33 38 42 45 47 49 51 51 47 42 38 34 31 30 28 27 25 24 23 23 23 26 32 38 42 45 48 51 56 59 61 63
10 11 13 15 17 17 17 17 18 17 17 19 19 20 26 30 34 39 43 45 48 51 50 43 33 27 25 24 22 20 17 18 18 18 18 19 21 23 23 24 25 27 30 32 34 38 42 48 52
11 13 15 17 18 18 17 17 15 15 16 18 21 25 28 34 40 44 45 47 45 39 33 29 25 18 18 19 18 15 13 14 17 18 20 21 21 22 23 25 26 27 28 30 32 34 36 38 41
11 14 17 18 18 16 17 14 12 13 15 18 23 28 35 40 43 45 47 38 26 22 20 17 17 20 20 20 20 18 17 18 18 18 18 18 20 22 24 25 27 29 31 32 33 35 37 39 41
13 16 18 19 18 17 12 11 12 12 15 20 26 33 37 42 45 44 29 22 21 19 19 20 21 21 21 19 17 16 15 15 17 19 20 21 21 22 23 23 24 25 26 27 29 30 32 34 37
14 17 20 21 18 12 10 11 12 13 18 23 30 35 40 43 42 24 21 21 21 21 21 20 19 18 17 17 17 18 19 21 22 22 20 18 19 21 23 24 25 27 29 31 33 34 35 36 38
15 18 21 21 14 10 10 10 11 15 21 28 32 37 41 39 25 23 23 21 21 21 20 19 18 18 18 18 18 19 21 22 18 17 19 20 22 24 26 28 29 30 32 34 36 38 40 42 42
15 19 22 20 11 9 10 10 12 17 24 29 33 37 37 27 21 20 20 21 21 20 21 19 19 18 18 19 20 22 23 22 19 20 22 24 25 25 27 29 31 33 34 35 36 37 38 40 44
15 19 22 17 11 10 10 10 13 19 25 28 33 35 28 21 21 19 19 20 20 21 21 21 21 20 21 22 23 24 24 24 23 23 24 25 27 29 30 32 33 35 37 37 38 39 39 40 43
14 18 20 15 12 10 8 10 14 20 24 29 31 30 24 22 22 20 19 20 21 22 22 22 21 21 22 22 23 23 23 24 24 24 24 25 27 28 28 28 29 31 31 32 32 34 36 39 41
13 18 21 17 15 11 9 10 15 20 23 28 28 26 24 26 24 24 25 24 25 26 25 22 23 22 24 24 25 25 26 26 25 26 26 26 27 28 30 31 33 35 34 34 32 32 32 33 38
11 17 21 18 15 12 9 11 16 19 23 26 24 24 24 25 26 27 27 29 29 26 24 22 22 23 24 24 24 25 25 25 26 27 28 28 28 28 29 30 31 32 33 33 32 33 34 36 40
9 13 17 19 15 13 9 11 14 17 22 25 22 23 22 25 24 27 27 27 25 22 20 19 19 20 21 23 24 25 26 27 28 28 28 29 29 29 30 29 31 32 34 34 33 34 36 37 39
8 11 14 18 18 13 10 11 13 14 18 22 22 21 20 22 22 22 22 20 19 19 18 19 19 19 20 20 22 23 25 26 27 29 29 29 30 31 31 32 33 34 36 36 35 35 38 39 39
7 10 13 16 18 14 11 9 12 12 12 17 19 20 19 18 20 19 19 18 19 20 19 18 18 18 17 18 20 22 24 24 26 27 28 30 32 32 34 35 34 35 35 35 35 35 37 40 45
9 9 11 14 18 17 13 8 10 10 9 10 13 15 15 15 15 17 17 17 18 18 17 17 17 18 19 19 21 23 23 26 28 28 30 31 33 34 33 33 36 38 38 39 39 39 40 43 47
14 12 12 12 15 17 18 12 9 10 10 8 8 10 10 11 13 14 16 16 17 18 18 19 19 19 20 20 22 23 26 27 29 31 33 35 36 36 37 35 36 39 40 43 43 43 45 47 48
16 15 15 13 14 15 17 18 11 11 9 7 5 7 10 10 10 11 15 16 16 18 17 19 20 20 21 22 25 27 28 29 32 34 36 36 37 37 38 39 39 41 45 46 48 48 49 50 50
19 19 19 17 16 14 17 17 18 13 12 12 10 10 11 11 11 11 14 16 17 19 20 20 22 22 23 24 26 28 31 32 34 35 36 37 38 39 39 41 43 44 48 50 51 53 53 52 51
22 22 22 22 20 17 15 16 17 18 15 14 14 14 16 15 14 13 15 17 18 20 20 21 22 25 26 27 28 29 31 33 35 35 37 38 39 40 41 43 45 47 50 53 55 57 57 56 54
24 25 25 24 24 20 17 16 17 17 17 17 17 17 18 18 17 19 19 19 20 22 22 23 25 25 27 28 29 30 32 34 34 35 37 38 39 41 43 44 47 48 51 55 58 60 61 59 55
28 27 27 27 27 25 23 21 17 19 18 18 17 19 19 20 22 21 22 23 23 24 24 25 26 28 29 29 31 32 33 34 35 35 37 39 40 42 44 45 48 49 52 56 60 63 64 63 56
30 30 29 29 30 30 28 27 24 21 22 21 21 20 21 22 23 23 25 26 27 26 25 26 27 28 30 31 31 32 34 35 35 37 38 39 41 43 45 46 48 50 52 57 61 65 66 67 57
31 31 32 32 31 32 33 25 27 28 27 23 22 23 23 23 23 25 26 26 26 27 27 27 29 29 30 30 31 32 34 35 36 37 38 39 41 43 44 45 48 50 52 57 61 66 68 70 60
Wind_Direction
74 141 291 328 18 35 356 350 348 330 322 319 317 318 315 312 310 309 308 308 305 303 303 295 296 293 290 287 284 283 281 280 278 277 276 274 272 270 269 267 267 267 268 267 265 264 262 260 259
116 120 122 51 34 348 18 350 344 333 322 318 315 316 312 312 309 307 307 305 303 301 301 296 295 293 293 292 289 288 285 283 281 280 279 277 276 275 272 270 268 267 266 266 266 265 263 262 261
107 92 52 53 40 14 359 355 346 337 328 326 325 322 317 315 311 307 306 304 302 301 299 296 296 294 293 293 291 290 288 287 285 282 282 281 279 277 276 274 273 271 269 268 266 266 267 265 261
93 77 46 28 10 347 344 335 330 329 326 328 329 321 317 313 310 307 307 305 305 304 304 303 302 299 296 294 292 291 290 289 287 285 284 282 280 280 278 277 275 272 271 270 268 267 265 265 265
75 52 33 356 349 340 327 323 319 323 324 320 324 317 315 314 313 312 311 311 311 310 308 305 301 297 295 293 291 290 289 289 288 287 284 281 278 275 274 274 273 271 269 268 266 265 266 264 264
51 28 354 338 349 328 320 318 321 325 322 319 322 323 320 318 317 317 317 315 311 307 302 299 299 300 303 302 300 298 295 293 291 288 286 282 277 271 268 266 266 266 266 266 265 264 264 264 263
23 3 349 338 341 335 328 327 329 327 322 319 325 326 321 322 320 320 317 312 308 306 306 310 312 310 304 298 294 291 291 292 293 291 288 287 287 285 278 270 267 266 266 265 264 262 262 262 261
7 357 350 340 339 339 335 333 331 328 324 325 328 330 327 325 323 319 314 314 314 317 318 314 314 317 314 314 311 307 308 308 308 310 310 307 303 298 293 288 283 278 275 272 269 268 266 264 263
2 352 345 347 343 340 337 332 330 332 331 332 335 331 329 326 322 317 318 319 322 319 322 327 331 342 349 348 348 338 323 317 313 308 304 302 301 299 298 295 292 288 283 279 275 273 271 270 269
359 353 351 350 345 342 336 337 339 340 337 341 334 333 330 325 321 322 325 327 340 347 350 358 350 340 341 338 333 328 321 317 314 313 311 308 305 301 298 295 292 290 287 283 279 276 274 271 269
1 356 353 351 345 341 347 351 345 341 345 339 336 333 328 326 327 332 342 354 355 354 352 350 344 341 339 338 338 337 333 326 320 316 314 313 312 313 311 309 305 301 297 292 289 284 279 274 270
360 356 354 351 348 352 358 351 344 348 344 340 338 335 333 332 336 354 359 360 357 356 353 350 350 350 350 347 343 339 336 333 332 332 333 334 332 326 320 316 311 306 301 297 293 289 284 281 278
357 354 353 352 355 3 353 347 351 349 345 344 344 342 337 342 359 7 2 2 2 2 1 359 356 354 352 349 348 348 346 346 351 351 343 339 334 326 320 317 315 312 308 303 299 295 289 285 282
355 351 352 355 2 358 347 356 356 351 346 352 350 346 345 360 16 14 9 14 12 3 1 359 358 359 2 0 0 5 6 1 347 343 340 338 334 333 331 326 321 316 312 307 304 301 298 292 286
352 352 350 358 3 355 351 3 359 349 357 357 355 353 360 19 28 23 24 21 13 9 9 6 7 6 6 5 3 3 1 358 357 355 351 345 338 334 330 326 323 319 314 308 303 299 297 296 292
349 351 354 1 359 356 1 358 350 356 5 4 3 3 20 36 40 32 27 28 24 19 16 14 12 10 6 4 3 1 359 1 2 359 357 356 356 354 354 355 355 352 346 334 320 309 303 301 301
346 351 2 0 358 353 359 355 355 6 13 12 13 22 41 49 51 47 44 41 44 42 35 29 27 20 18 17 19 20 22 20 20 19 14 11 9 11 8 4 4 2 358 358 356 351 341 325 310
352 353 357 1 354 353 352 353 1 13 20 23 29 39 46 58 63 68 67 67 66 66 63 55 42 34 34 31 28 23 20 15 11 11 12 14 14 10 7 8 8 6 2 1 355 347 343 343 331
341 350 353 357 353 353 350 349 4 20 29 31 42 39 49 62 62 71 74 73 72 69 63 58 50 40 30 26 18 15 16 19 22 23 19 14 13 10 6 5 4 3 3 1 357 352 346 339 340
323 341 352 352 358 349 345 346 2 23 37 40 46 48 50 55 57 60 68 72 69 61 52 46 40 38 35 31 25 22 21 19 15 15 15 13 11 7 5 4 0 1 357 353 350 348 342 337 332
295 325 343 352 354 351 345 339 354 15 39 42 51 47 49 54 57 57 49 51 44 43 41 41 38 29 23 16 13 14 12 13 13 11 8 5 3 1 360 359 356 354 349 346 343 340 337 336 331
273 298 326 343 349 353 342 339 342 0 19 34 49 52 53 50 50 45 45 40 35 29 21 20 16 15 11 13 12 8 7 5 5 4 3 3 360 359 357 357 354 350 346 342 340 339 336 333 330
263 275 299 322 336 347 348 340 335 347 3 17 38 38 41 43 38 42 26 27 25 19 16 13 12 11 5 2 0 1 359 359 1 1 360 357 357 356 354 352 350 347 344 342 340 339 337 335 333
256 267 278 297 315 335 345 353 342 339 339 347 351 5 7 5 14 12 7 5 4 7 8 5 1 359 358 360 359 356 356 357 357 357 356 356 354 353 351 349 348 347 343 343 341 342 340 338 336
254 259 268 279 292 316 331 343 350 332 327 326 322 326 338 343 342 344 349 350 354 357 355 355 357 358 355 357 357 355 354 353 354 354 354 353 352 350 349 347 347 347 345 344 344 344 344 340 340
257 256 263 272 280 294 312 323 338 343 331 320 315 315 317 323 326 331 337 343 340 340 341 343 345 344 347 349 349 350 350 352 353 353 353 353 351 349 349 348 346 348 346 344 345 346 345 346 344
258 259 259 263 271 278 288 302 316 328 335 329 317 314 314 317 316 315 321 326 328 333 335 337 339 340 343 343 346 349 351 352 353 353 353 353 351 349 349 349 348 349 347 346 347 348 348 348 347
257 260 261 262 265 269 275 282 298 309 317 324 329 320 314 310 311 314 316 320 323 326 329 332 339 341 341 343 344 347 349 350 352 353 353 351 350 349 348 350 349 350 349 348 350 349 350 351 350
256 259 262 263 265 266 269 278 285 295 302 310 316 326 326 319 313 313 313 315 319 325 324 329 332 336 339 341 344 345 346 349 350 351 351 350 348 348 349 351 350 352 352 351 352 351 353 354 353
260 259 260 263 264 266 268 267 280 283 286 292 302 312 318 324 320 314 314 319 321 323 323 326 329 332 336 340 342 343 345 347 347 349 350 349 348 347 349 351 351 353 354 354 354 353 355 357 357